Total_Precipitation_Accumulation
0.05 0.11 0.29 0.57 1.23 1.54 1.31 0.74 0.55 0.43 0.44 0.46 0.47 0.46 0.51 0.60 0.91 1.30 0.94 0.57 0.21 0.12 0.18 0.38 0.54 0.45 0.42 0.44 0.45 0.47 0.42 0.40 0.41 0.41 0.38 0.42 0.42 0.44 0.47 0.53 0.56 0.65 0.76 0.78 0.72 0.74 0.66 0.67 0.74
0.08 0.15 0.35 0.84 1.52 1.52 1.14 0.63 0.47 0.37 0.41 0.40 0.36 0.41 0.54 0.61 0.48 0.53 0.67 0.53 0.19 0.09 0.10 0.14 0.36 0.41 0.39 0.42 0.43 0.45 0.44 0.40 0.39 0.42 0.39 0.42 0.48 0.52 0.55 0.52 0.55 0.62 0.67 0.64 0.64 0.58 0.62 0.66 0.74
0.10 0.18 0.38 0.85 1.01 0.99 0.80 0.51 0.43 0.34 0.44 0.59 0.50 0.42 0.54 0.72 0.55 0.49 0.49 0.30 0.17 0.11 0.10 0.17 0.32 0.34 0.35 0.40 0.41 0.42 0.41 0.41 0.39 0.42 0.40 0.45 0.50 0.60 0.64 0.60 0.56 0.57 0.59 0.60 0.62 0.59 0.66 0.65 0.74
0.10 0.23 0.42 0.55 0.43 0.40 0.42 0.42 0.43 0.46 0.65 0.80 0.66 0.54 0.60 0.58 0.53 0.46 0.37 0.26 0.19 0.16 0.15 0.22 0.34 0.34 0.36 0.38 0.38 0.38 0.37 0.39 0.41 0.46 0.46 0.49 0.51 0.63 0.63 0.64 0.63 0.60 0.62 0.69 0.73 0.67 0.71 0.71 0.72
0.10 0.28 0.55 0.41 0.24 0.24 0.26 0.31 0.46 0.53 0.77 0.86 0.63 0.67 0.78 0.71 0.62 0.57 0.43 0.38 0.35 0.38 0.36 0.35 0.43 0.41 0.40 0.38 0.39 0.39 0.40 0.40 0.43 0.46 0.46 0.51 0.54 0.63 0.65 0.67 0.68 0.62 0.63 0.70 0.79 0.76 0.76 0.82 0.88
0.09 0.22 0.37 0.28 0.17 0.15 0.19 0.26 0.41 0.54 0.75 0.84 0.70 0.90 0.99 0.98 0.90 0.81 0.76 0.81 0.75 0.77 0.71 0.65 0.65 0.58 0.52 0.48 0.48 0.47 0.47 0.43 0.47 0.50 0.50 0.52 0.57 0.61 0.63 0.67 0.69 0.65 0.64 0.70 0.75 0.78 0.81 0.86 0.90
0.08 0.18 0.24 0.16 0.11 0.12 0.19 0.25 0.43 0.61 0.76 0.98 0.95 1.06 1.11 1.27 1.17 1.06 1.04 1.10 1.16 1.12 1.04 0.85 0.72 0.67 0.62 0.66 0.63 0.56 0.52 0.50 0.51 0.57 0.54 0.52 0.55 0.55 0.56 0.65 0.71 0.65 0.68 0.71 0.75 0.76 0.83 0.83 0.85
0.05 0.09 0.14 0.09 0.06 0.09 0.17 0.25 0.39 0.59 0.83 0.97 0.98 1.07 1.12 1.14 1.15 1.23 1.33 1.46 1.66 1.52 1.34 1.02 0.83 0.87 0.75 0.69 0.71 0.66 0.60 0.58 0.59 0.63 0.61 0.63 0.67 0.66 0.71 0.75 0.84 0.77 0.75 0.75 0.82 0.88 0.86 0.88 0.90
0.03 0.06 0.08 0.07 0.03 0.06 0.16 0.32 0.45 0.50 0.67 1.00 1.22 1.06 0.92 1.01 1.33 1.56 1.89 1.95 2.07 1.93 1.51 1.13 1.05 1.13 1.02 0.84 0.76 0.92 0.84 0.81 0.83 0.90 0.92 1.10 1.37 1.15 1.14 0.96 1.07 1.00 0.99 1.01 1.10 1.15 1.17 1.12 0.99
0.03 0.06 0.06 0.03 0.02 0.04 0.15 0.38 0.54 0.64 0.99 1.32 1.49 1.28 1.07 1.06 1.50 1.87 2.03 2.15 1.85 1.89 1.84 1.51 1.27 1.20 1.23 1.07 1.08 1.47 1.42 1.35 1.49 1.55 1.50 1.83 1.84 1.64 1.19 1.17 1.46 1.43 1.50 1.58 1.80 1.94 1.72 1.41 1.22
0.02 0.03 0.02 0.03 0.02 0.06 0.19 0.23 0.31 0.58 1.20 1.59 1.78 1.40 1.16 1.22 1.56 2.07 2.25 2.17 1.90 1.89 1.79 1.82 1.65 1.49 1.46 1.56 1.47 1.61 1.80 1.85 1.96 1.87 1.90 2.12 1.80 1.54 1.36 1.54 1.88 1.90 1.97 2.04 2.26 2.42 1.89 1.88 2.17
0.02 0.02 0.01 0.02 0.02 0.04 0.11 0.20 0.35 0.66 1.15 1.41 1.31 1.15 1.16 1.37 1.59 2.13 2.47 2.36 2.22 2.15 2.04 2.27 2.19 2.08 2.08 1.94 1.92 1.73 1.67 1.69 1.81 1.89 1.86 2.01 2.00 1.88 1.86 1.99 2.04 2.20 2.36 2.59 2.46 2.62 2.59 2.64 2.49
0.01 0.01 0.01 0.01 0.02 0.04 0.09 0.20 0.33 0.56 0.84 0.91 0.81 0.97 1.38 1.49 1.74 2.26 2.82 2.84 2.74 2.58 2.64 2.80 2.85 2.93 2.74 2.48 2.25 1.85 1.80 1.71 1.67 1.73 1.73 1.94 2.19 2.23 2.35 2.15 2.16 1.96 2.09 2.43 2.70 2.73 2.93 3.07 2.93
0.01 0.01 0.02 0.03 0.05 0.06 0.10 0.21 0.38 0.75 0.76 0.69 0.81 1.12 1.47 1.85 1.97 2.35 3.03 3.32 3.26 3.22 3.39 3.40 3.43 3.45 3.24 2.83 2.57 2.25 1.95 1.96 1.77 1.73 1.81 2.26 2.47 2.43 2.51 2.39 2.34 2.03 2.04 2.35 2.71 2.78 3.07 3.06 3.07
0.01 0.04 0.10 0.10 0.08 0.10 0.15 0.45 0.65 0.82 0.78 0.77 0.98 1.22 1.68 2.23 2.44 2.70 3.12 3.46 3.68 3.92 4.08 4.27 4.18 3.87 3.81 3.44 2.79 2.31 2.04 1.87 1.91 2.01 2.08 2.34 2.50 2.65 2.79 2.71 2.36 2.13 2.22 2.41 2.43 2.57 3.03 2.88 2.84
0.02 0.07 0.24 0.20 0.10 0.12 0.22 0.68 0.82 0.84 0.88 0.95 1.17 1.49 1.83 2.30 2.36 2.61 2.98 3.54 4.12 4.50 4.89 5.08 4.73 4.58 4.51 4.14 3.54 3.01 2.71 2.48 2.43 2.40 2.22 2.05 2.26 2.37 2.57 2.34 1.99 2.06 2.29 2.44 2.42 2.43 2.81 2.92 2.93
0.06 0.10 0.20 0.20 0.13 0.14 0.24 0.64 0.65 0.56 0.92 1.30 1.53 1.70 1.84 2.00 2.09 2.32 2.69 3.43 4.24 4.83 5.53 5.91 6.06 5.54 5.09 4.50 4.02 3.52 3.18 2.95 2.69 2.40 2.14 1.86 1.69 1.62 1.80 1.78 1.71 1.73 1.99 2.05 1.81 2.04 2.33 2.50 2.65
0.05 0.09 0.16 0.20 0.17 0.17 0.30 0.57 0.68 0.60 0.89 1.25 1.30 1.57 1.68 1.68 1.87 2.27 2.80 3.33 4.18 4.97 5.66 6.04 6.21 5.67 4.92 4.57 4.45 4.06 3.50 3.08 2.70 2.31 2.05 1.70 1.53 1.36 1.51 1.52 1.41 1.40 1.52 1.58 1.76 2.04 2.11 2.03 2.10
0.04 0.09 0.16 0.18 0.18 0.24 0.41 0.66 0.78 0.78 0.84 0.99 1.11 1.30 1.34 1.39 1.65 2.12 2.77 3.43 4.23 5.33 5.98 6.08 5.75 5.03 4.47 4.01 3.73 3.42 3.13 2.84 2.38 1.97 1.72 1.58 1.50 1.41 1.52 1.36 1.38 1.32 1.35 1.35 1.47 1.67 1.74 1.54 1.70
0.05 0.09 0.17 0.17 0.14 0.16 0.38 0.72 0.82 0.88 0.95 0.95 1.01 1.10 1.02 1.17 1.52 2.12 2.91 3.72 4.38 4.92 5.26 5.30 4.88 4.11 3.61 3.28 3.18 2.89 2.65 2.30 2.08 1.81 1.72 1.49 1.41 1.36 1.27 1.36 1.19 1.15 1.26 1.23 1.33 1.53 1.53 1.35 1.47
0.08 0.09 0.15 0.18 0.15 0.17 0.38 0.86 1.03 0.98 0.97 0.97 0.87 0.86 0.94 1.14 1.70 2.47 3.30 4.06 4.39 4.40 4.16 3.85 3.63 3.22 3.07 2.98 2.77 2.52 2.43 2.14 1.94 1.70 1.56 1.33 1.19 1.11 1.08 1.08 1.03 1.06 0.98 1.09 1.25 1.37 1.50 1.46 1.28
0.09 0.07 0.05 0.07 0.13 0.34 0.47 0.94 1.09 1.11 1.07 0.95 0.91 0.93 1.04 1.30 1.85 2.57 3.12 3.36 3.51 3.43 3.13 2.91 2.80 2.70 2.62 2.52 2.37 2.05 1.83 1.77 1.63 1.52 1.46 1.35 1.21 1.14 1.09 0.99 1.03 1.02 0.92 1.13 0.99 1.09 1.33 1.42 1.24
0.06 0.04 0.04 0.08 0.19 0.35 0.49 0.79 1.14 1.13 1.20 0.81 0.69 0.80 0.89 1.11 1.41 1.65 1.87 2.02 2.15 2.18 2.32 2.35 2.41 2.51 2.41 2.35 2.29 2.15 1.87 1.80 1.77 1.73 1.74 1.62 1.44 1.26 1.04 1.02 1.10 1.11 0.97 1.00 1.03 1.18 1.22 1.26 1.21
0.04 0.06 0.13 0.22 0.37 0.71 0.70 0.83 1.17 1.16 1.00 0.62 0.44 0.49 0.69 0.81 0.87 0.98 1.08 1.20 1.43 1.48 1.67 1.83 1.89 2.03 2.16 2.16 2.02 1.97 1.89 1.90 1.89 1.80 1.63 1.43 1.32 1.23 1.12 1.12 1.25 1.21 1.14 1.08 1.07 1.10 1.15 1.26 1.34
0.05 0.09 0.31 0.64 0.99 1.05 0.62 0.73 1.12 1.04 0.72 0.46 0.37 0.33 0.38 0.54 0.69 0.84 0.97 1.08 1.27 1.20 1.25 1.43 1.49 1.52 1.65 1.66 1.62 1.68 1.80 1.84 1.69 1.56 1.47 1.33 1.11 1.08 1.14 1.14 1.24 1.21 1.22 1.17 1.24 1.25 1.17 1.24 1.32
0.06 0.07 0.18 0.35 0.46 0.62 0.65 1.13 1.36 0.80 0.50 0.35 0.31 0.27 0.28 0.43 0.60 0.71 0.71 0.78 0.90 0.86 0.94 1.06 1.19 1.26 1.31 1.37 1.43 1.42 1.54 1.54 1.47 1.52 1.43 1.29 1.07 0.99 0.99 1.04 1.07 1.10 1.13 1.12 1.38 1.29 1.30 1.35 1.29
0.06 0.05 0.07 0.10 0.17 0.44 0.81 1.16 1.13 0.68 0.51 0.34 0.29 0.26 0.27 0.33 0.48 0.53 0.46 0.47 0.60 0.70 0.76 0.81 0.99 1.11 1.12 1.23 1.30 1.25 1.32 1.40 1.46 1.48 1.38 1.21 1.19 1.08 1.08 1.09 1.19 1.25 1.27 1.29 1.45 1.42 1.38 1.47 1.31
0.07 0.07 0.08 0.10 0.19 0.40 0.73 1.17 1.38 1.00 0.57 0.39 0.38 0.37 0.35 0.32 0.37 0.39 0.37 0.35 0.43 0.56 0.72 0.81 0.92 1.03 1.05 1.14 1.13 0.99 1.15 1.27 1.41 1.39 1.31 1.27 1.29 1.21 1.25 1.26 1.32 1.37 1.34 1.34 1.49 1.50 1.54 1.58 1.48
0.09 0.09 0.10 0.11 0.12 0.23 0.56 0.84 0.73 0.72 0.55 0.53 0.50 0.44 0.40 0.35 0.37 0.36 0.32 0.30 0.32 0.42 0.61 0.74 0.86 0.95 0.98 1.05 1.13 1.17 1.17 1.10 1.21 1.26 1.26 1.31 1.35 1.27 1.29 1.36 1.42 1.39 1.44 1.53 1.62 1.51 1.55 1.64 1.76
0.11 0.11 0.12 0.14 0.12 0.13 0.27 0.44 0.44 0.62 0.61 0.59 0.58 0.53 0.49 0.36 0.32 0.33 0.33 0.35 0.35 0.37 0.48 0.60 0.72 0.84 0.91 1.00 1.13 1.18 1.26 1.18 1.15 1.19 1.26 1.32 1.42 1.46 1.42 1.45 1.47 1.36 1.38 1.56 1.63 1.61 1.63 1.64 1.65